Home   Weather   Kaiserslautern   Past weeks

Flag for Germany Past Weather in Kaiserslautern, Rhineland-Palatinate, Germany — Yesterday and Last 2 Weeks

Now
71 °F

Sunny.


Feels Like: 77 °F
Forecast: 50 / 77 °F
Wind: 6 mph from Northeast

Location: Ramstein

Current Time: Aug 30, 2016 at 9:11:50 PM

Latest Report: Aug 30, 2016 at 7:58 PM


Visibility: N/A

Pressure: 30.18 "Hg

Humidity: 51%

Dew Point: 52 °F

Location of KaiserslauternLocation

Past Weather in Kaiserslautern — Graph

°F

Kaiserslautern Temperature Yesterday

Maximum temperature yesterday: 77 °F (at 4:58 PM)
Minimum temperature yesterday: 58 °F (at 11:58 PM)
Average temperature yesterday: 68 °F

High & Low Weather Summary for the Past Weeks

 TemperatureHumidityPressure
High96 °F (Aug 26, 4:58 PM)100% (Aug 15, 11:58 PM)30.39 "Hg (Aug 15, 11:58 PM)
Low45 °F (Aug 22, 4:58 AM)28% (Aug 27, 4:58 PM)29.81 "Hg (Aug 18, 3:58 PM)
Average67 °F76%30.06 "Hg
* Reported Aug 15 7:58 PM — Aug 30 7:58 PM, Kaiserslautern, Weather by CustomWeather, © 2016

Note: Actual official high and low records may vary slightly from our data, if they occured in-between our weather recording intervals... More about our weather records

Advertising

Kaiserslautern Weather History for the Previous 24 Hours

Scroll right to see more
 ConditionsComfort  
Time TempWeatherWind HumidityBarometerVisibility
7:58 PM
Tue, Aug 30
71 °FSunny.6 mph51%30.18 "HgN/A
6:58 PM74 °FSunny.9 mph46%30.18 "HgN/A
5:58 PM75 °FSunny.8 mph47%30.20 "HgN/A
4:58 PM77 °FSunny.10 mph44%30.20 "HgN/A
3:58 PM76 °FPassing clouds.7 mph45%30.21 "HgN/A
2:58 PM75 °FSunny.8 mph47%30.24 "HgN/A
1:58 PM75 °FScattered clouds.9 mph47%30.25 "HgN/A
12:58 PM72 °FScattered clouds.8 mph52%30.25 "HgN/A
11:58 AM73 °FSunny.10 mph54%30.26 "HgN/A
10:58 AM70 °FSunny.10 mph61%30.27 "HgN/A
9:58 AM66 °FSunny.7 mph74%30.27 "HgN/A
8:58 AM64 °FSunny.No wind78%30.28 "HgN/A
7:58 AM56 °FOvercast.No wind99%30.25 "HgN/A
6:58 AM52 °FPassing clouds.No wind100%30.25 "HgN/A
5:58 AM50 °FClear.No wind100%30.24 "HgN/A
4:58 AM50 °FClear.No wind99%30.22 "HgN/A
3:58 AM52 °FClear.No wind100%30.23 "HgN/A
2:58 AM52 °FClear.No wind100%30.24 "HgN/A
1:58 AM52 °FClear.No wind99%30.22 "HgN/A
12:58 AM55 °FClear.No wind100%30.23 "HgN/A
11:58 PM
Mon, Aug 29
58 °FClear.No wind96%30.21 "HgN/A
10:58 PM59 °FClear.No wind94%30.20 "HgN/A
9:58 PM65 °FPassing clouds.No wind75%30.19 "HgN/A
Weather by CustomWeather, © 2016

See weather overviewHow to use our weather pages